DLH1MK EDDM-LGTS

Flight info

Callsign DLH1MK
Flight time N/A
Altitude 39000
Route ROTAX4Q ROTAX L603 LATLO DCT OBEDI/N0433F390 DCT KLAGY DCT MAGAM DCT IRDIV DCT PODOB DCT MEDUX UM867 KOGAT DCT ERANA T389 ALIKO
Aircraft A20N/M-SDE2E3FGHIRWXY/LB1

Departure

Time N/A
Airport Munich Airport (EDDM)

Arrival

Time 2026-05-06 12:54
Airport Thessaloniki Macedonia International Airport (LGTS)
Time Latitude Longitude Altitude Speed Heading
2026-05-06 11:44 46.41440 14.94834 38915 ft 474 kts 135°
2026-05-06 11:45 46.37207 15.02154 38920 ft 473 kts 134°
2026-05-06 11:45 46.33003 15.09405 38927 ft 472 kts 135°
2026-05-06 11:46 46.28771 15.16685 38921 ft 472 kts 134°
2026-05-06 11:46 46.24580 15.23873 38934 ft 472 kts 134°
2026-05-06 11:47 46.20350 15.31109 38936 ft 472 kts 134°
2026-05-06 11:47 46.16128 15.38315 38945 ft 472 kts 134°
2026-05-06 11:48 46.11897 15.45520 38943 ft 472 kts 134°
2026-05-06 11:48 46.07669 15.52697 38953 ft 472 kts 135°
2026-05-06 11:49 46.03419 15.59895 38944 ft 473 kts 134°
2026-05-06 11:49 45.99150 15.67101 38951 ft 472 kts 135°
2026-05-06 11:50 45.94856 15.74194 38949 ft 470 kts 137°
2026-05-06 11:50 45.90452 15.81126 38942 ft 470 kts 137°
2026-05-06 11:51 45.86042 15.88058 38948 ft 470 kts 137°
2026-05-06 11:51 45.81675 15.94929 38938 ft 469 kts 137°
2026-05-06 11:52 45.77280 16.01835 38940 ft 469 kts 137°
2026-05-06 11:52 45.72906 16.08692 38940 ft 469 kts 137°
2026-05-06 11:53 45.68490 16.15599 38935 ft 470 kts 137°
2026-05-06 11:53 45.64113 16.22427 38936 ft 470 kts 137°
2026-05-06 11:54 45.59690 16.29310 38935 ft 471 kts 137°
2026-05-06 11:54 45.55240 16.36220 38930 ft 471 kts 137°
2026-05-06 11:55 45.50830 16.43050 38926 ft 471 kts 137°
2026-05-06 11:55 45.46392 16.49907 38928 ft 471 kts 137°
2026-05-06 11:56 45.41968 16.56726 38927 ft 470 kts 137°
2026-05-06 11:56 45.37541 16.63532 38932 ft 469 kts 137°
2026-05-06 11:57 45.33111 16.70324 38927 ft 469 kts 137°
2026-05-06 11:57 45.28677 16.77106 38921 ft 469 kts 137°
2026-05-06 11:58 45.24229 16.83896 38995 ft 469 kts 137°
2026-05-06 11:58 45.19810 16.90623 38946 ft 469 kts 137°
2026-05-06 11:59 45.15344 16.97407 38941 ft 470 kts 137°
2026-05-06 11:59 45.10897 17.04146 38947 ft 470 kts 138°
2026-05-06 12:00 45.06447 17.10853 38937 ft 468 kts 139°
2026-05-06 12:00 45.01827 17.17266 38938 ft 467 kts 140°
2026-05-06 12:01 44.97181 17.23643 38932 ft 467 kts 140°
2026-05-06 12:01 44.92516 17.30038 38930 ft 468 kts 140°
2026-05-06 12:02 44.87856 17.36411 38943 ft 469 kts 140°
2026-05-06 12:02 44.83173 17.42806 38946 ft 469 kts 140°
2026-05-06 12:03 44.78490 17.49182 38957 ft 469 kts 140°
2026-05-06 12:03 44.73824 17.55518 38972 ft 469 kts 140°
2026-05-06 12:04 44.69108 17.61908 38979 ft 470 kts 140°
2026-05-06 12:04 44.64430 17.68232 38990 ft 470 kts 140°
2026-05-06 12:05 44.59733 17.74564 39005 ft 470 kts 140°
2026-05-06 12:05 44.54999 17.80937 39005 ft 470 kts 140°
2026-05-06 12:06 44.50308 17.87234 39009 ft 470 kts 140°
2026-05-06 12:06 44.45602 17.93535 39004 ft 470 kts 140°
2026-05-06 12:07 44.40888 17.99833 39004 ft 470 kts 140°
2026-05-06 12:07 44.36140 18.06161 39009 ft 470 kts 140°
2026-05-06 12:08 44.31415 18.12443 39020 ft 472 kts 140°
2026-05-06 12:08 44.26666 18.18744 39022 ft 471 kts 139°
2026-05-06 12:09 44.21917 18.25032 39024 ft 471 kts 140°
2026-05-06 12:09 44.17168 18.31302 39022 ft 471 kts 139°
2026-05-06 12:10 44.12416 18.37562 39033 ft 471 kts 139°
2026-05-06 12:10 44.07664 18.43810 39035 ft 471 kts 139°
2026-05-06 12:11 44.02912 18.50040 39031 ft 471 kts 139°
2026-05-06 12:11 43.98130 18.56295 39036 ft 472 kts 139°
2026-05-06 12:12 43.93372 18.62507 39043 ft 473 kts 139°
2026-05-06 12:12 43.88582 18.68747 39042 ft 473 kts 140°
2026-05-06 12:13 43.83776 18.74989 39052 ft 473 kts 140°
2026-05-06 12:13 43.78994 18.81189 39053 ft 472 kts 140°
2026-05-06 12:14 43.74210 18.87375 39050 ft 471 kts 140°
2026-05-06 12:14 43.69419 18.93559 39050 ft 472 kts 140°
2026-05-06 12:15 43.64647 18.99705 39062 ft 472 kts 140°
2026-05-06 12:15 43.59842 19.05879 39069 ft 473 kts 140°
2026-05-06 12:16 43.55053 19.12016 39059 ft 473 kts 140°
2026-05-06 12:16 43.50091 19.17935 39226 ft 473 kts 143°
2026-05-06 12:17 43.45009 19.23697 39109 ft 472 kts 143°
2026-05-06 12:17 43.39975 19.29394 39100 ft 472 kts 143°
2026-05-06 12:18 43.34881 19.35152 39094 ft 473 kts 143°
2026-05-06 12:18 43.32349 19.38009 38934 ft 473 kts 143°
2026-05-06 12:18 43.29818 19.40861 39055 ft 473 kts 143°
2026-05-06 12:19 43.24754 19.46560 39103 ft 474 kts 143°
2026-05-06 12:19 43.19676 19.52264 39103 ft 474 kts 143°
2026-05-06 12:20 43.14593 19.57961 39095 ft 474 kts 143°
2026-05-06 12:20 43.09495 19.63662 39116 ft 473 kts 143°
2026-05-06 12:21 43.04395 19.69350 39093 ft 474 kts 144°
2026-05-06 12:21 43.01832 19.72205 38977 ft 474 kts 144°
2026-05-06 12:21 42.99281 19.75043 39062 ft 475 kts 144°
2026-05-06 12:22 42.94188 19.80700 39088 ft 476 kts 144°
2026-05-06 12:22 42.89057 19.86390 39094 ft 476 kts 144°
2026-05-06 12:23 42.83938 19.92053 39131 ft 476 kts 144°
2026-05-06 12:23 42.78778 19.97755 39115 ft 477 kts 143°
2026-05-06 12:24 42.73917 20.03863 38977 ft 480 kts 136°
2026-05-06 12:24 42.69548 20.10681 39101 ft 482 kts 131°
2026-05-06 12:25 42.65291 20.17742 39108 ft 483 kts 131°
2026-05-06 12:25 42.63169 20.21252 39255 ft 483 kts 131°
2026-05-06 12:25 42.61044 20.24757 39157 ft 483 kts 131°
2026-05-06 12:26 42.56774 20.31778 39108 ft 482 kts 131°
2026-05-06 12:26 42.52531 20.38728 39090 ft 482 kts 131°
2026-05-06 12:27 42.48236 20.45749 39080 ft 483 kts 131°
2026-05-06 12:27 42.43953 20.52733 39080 ft 484 kts 131°
2026-05-06 12:28 42.39658 20.59718 39082 ft 485 kts 131°
2026-05-06 12:28 42.35352 20.66711 39079 ft 485 kts 131°
2026-05-06 12:29 42.31051 20.73676 39077 ft 485 kts 131°
2026-05-06 12:29 42.26743 20.80636 39074 ft 485 kts 131°
2026-05-06 12:30 42.22412 20.87616 39089 ft 485 kts 131°
2026-05-06 12:30 42.18075 20.94594 39097 ft 485 kts 131°
2026-05-06 12:31 42.13738 21.01550 39096 ft 486 kts 131°
2026-05-06 12:31 42.09243 21.08307 39092 ft 485 kts 134°
2026-05-06 12:32 42.04614 21.14859 39081 ft 484 kts 135°
2026-05-06 12:32 41.99979 21.21427 39074 ft 485 kts 134°
2026-05-06 12:33 41.97682 21.24690 38695 ft 479 kts 134°
2026-05-06 12:33 41.95415 21.27916 38091 ft 475 kts 134°
2026-05-06 12:33 41.93171 21.31105 37494 ft 471 kts 135°
2026-05-06 12:33 41.90947 21.34261 36896 ft 467 kts 135°
2026-05-06 12:34 41.88724 21.37414 36296 ft 464 kts 135°
2026-05-06 12:34 41.86521 21.40535 35702 ft 461 kts 135°
2026-05-06 12:34 41.84343 21.43620 35112 ft 458 kts 135°
2026-05-06 12:34 41.82147 21.46726 34516 ft 455 kts 135°
2026-05-06 12:35 41.79987 21.49775 33963 ft 456 kts 135°
2026-05-06 12:35 41.77806 21.52849 33413 ft 458 kts 135°
2026-05-06 12:35 41.75597 21.55959 32860 ft 459 kts 134°
2026-05-06 12:35 41.73409 21.59039 32313 ft 459 kts 134°
2026-05-06 12:36 41.71227 21.62106 31769 ft 458 kts 134°
2026-05-06 12:36 41.69028 21.65195 31218 ft 454 kts 135°
2026-05-06 12:36 41.66867 21.68229 30673 ft 450 kts 135°
2026-05-06 12:36 41.64725 21.71234 30131 ft 447 kts 135°
2026-05-06 12:37 41.62604 21.74204 29593 ft 443 kts 135°
2026-05-06 12:37 41.60498 21.77153 29062 ft 440 kts 135°
2026-05-06 12:37 41.58385 21.80107 28527 ft 437 kts 134°
2026-05-06 12:37 41.56296 21.83023 27997 ft 433 kts 134°
2026-05-06 12:38 41.54235 21.85901 27471 ft 430 kts 134°
2026-05-06 12:38 41.52187 21.88754 26946 ft 428 kts 134°
2026-05-06 12:38 41.50126 21.91624 26416 ft 425 kts 134°
2026-05-06 12:38 41.48101 21.94441 25893 ft 424 kts 134°
2026-05-06 12:39 41.45990 21.97373 25368 ft 451 kts 134°
2026-05-06 12:39 41.43813 22.00394 24721 ft 459 kts 134°
2026-05-06 12:39 41.41613 22.03443 24080 ft 457 kts 134°
2026-05-06 12:39 41.39413 22.06487 23443 ft 454 kts 134°
2026-05-06 12:40 41.37247 22.09485 22834 ft 450 kts 134°
2026-05-06 12:40 41.35101 22.12454 22238 ft 446 kts 134°
2026-05-06 12:40 41.32952 22.15423 21639 ft 442 kts 134°
2026-05-06 12:40 41.30841 22.18339 21040 ft 438 kts 134°
2026-05-06 12:41 41.28744 22.21230 20447 ft 435 kts 134°
2026-05-06 12:41 41.26633 22.24137 19848 ft 431 kts 134°
2026-05-06 12:41 41.24583 22.26955 19256 ft 427 kts 134°
2026-05-06 12:41 41.22545 22.29755 18657 ft 423 kts 134°
2026-05-06 12:42 41.20491 22.32575 18049 ft 419 kts 134°
2026-05-06 12:42 41.18486 22.35323 17451 ft 415 kts 134°
2026-05-06 12:42 41.16497 22.38049 16851 ft 412 kts 134°
2026-05-06 12:42 41.14532 22.40741 16248 ft 408 kts 134°
2026-05-06 12:43 41.12561 22.43436 15637 ft 405 kts 134°
2026-05-06 12:43 41.10617 22.46093 15021 ft 401 kts 134°
2026-05-06 12:43 41.08690 22.48725 14422 ft 398 kts 134°
2026-05-06 12:43 41.06764 22.51352 13819 ft 394 kts 134°
2026-05-06 12:44 41.04877 22.53926 13236 ft 391 kts 134°
2026-05-06 12:44 41.03005 22.56478 12654 ft 388 kts 134°
2026-05-06 12:44 41.01120 22.59042 12065 ft 385 kts 134°
2026-05-06 12:44 40.99276 22.61550 11475 ft 381 kts 134°
2026-05-06 12:45 40.97430 22.64059 10893 ft 377 kts 134°
2026-05-06 12:45 40.95611 22.66527 10306 ft 374 kts 135°
2026-05-06 12:45 40.92140 22.71236 9138 ft 342 kts 135°
2026-05-06 12:46 40.90510 22.73444 8538 ft 326 kts 135°
2026-05-06 12:46 40.88965 22.75537 7967 ft 313 kts 135°
2026-05-06 12:46 40.87476 22.77551 7384 ft 301 kts 135°
2026-05-06 12:46 40.86041 22.79476 6803 ft 292 kts 135°
2026-05-06 12:47 40.84652 22.81336 6222 ft 282 kts 135°
2026-05-06 12:47 40.83290 22.83160 5636 ft 273 kts 135°
2026-05-06 12:47 40.81980 22.84909 5053 ft 267 kts 135°
2026-05-06 12:47 40.80686 22.86622 4474 ft 265 kts 138°
2026-05-06 12:48 40.79224 22.88053 3900 ft 261 kts 152°
2026-05-06 12:48 40.77546 22.88948 3548 ft 261 kts 163°
2026-05-06 12:48 40.75798 22.89560 3484 ft 257 kts 167°
2026-05-06 12:48 40.74122 22.90077 3477 ft 240 kts 167°
2026-05-06 12:49 40.72543 22.90559 3475 ft 224 kts 167°
2026-05-06 12:49 40.71072 22.91017 3431 ft 212 kts 166°
2026-05-06 12:49 40.69654 22.91466 3218 ft 208 kts 166°
2026-05-06 12:49 40.68240 22.91916 2946 ft 207 kts 166°
2026-05-06 12:50 40.66850 22.92360 2678 ft 206 kts 166°
2026-05-06 12:50 40.65459 22.92804 2408 ft 201 kts 166°
2026-05-06 12:50 40.64141 22.93224 2160 ft 188 kts 166°
2026-05-06 12:50 40.62935 22.93608 1995 ft 171 kts 167°
2026-05-06 12:51 40.61813 22.93965 1753 ft 160 kts 167°
2026-05-06 12:51 40.60767 22.94298 1521 ft 150 kts 166°
2026-05-06 12:51 40.59793 22.94608 1313 ft 136 kts 166°
2026-05-06 12:51 40.58901 22.94904 1127 ft 131 kts 166°
2026-05-06 12:52 40.58012 22.95185 983 ft 130 kts 167°
2026-05-06 12:52 40.57130 22.95442 827 ft 130 kts 167°
2026-05-06 12:52 40.56248 22.95707 660 ft 129 kts 166°
2026-05-06 12:52 40.55381 22.96008 499 ft 128 kts 166°
2026-05-06 12:53 40.54515 22.96291 332 ft 128 kts 166°
2026-05-06 12:53 40.53650 22.96561 178 ft 127 kts 166°
2026-05-06 12:53 40.52800 22.96830 20 ft 126 kts 166°
2026-05-06 12:53 40.52048 22.97068 10 ft 88 kts 167°
2026-05-06 12:54 40.51621 22.97204 13 ft 36 kts 167°
2026-05-06 12:54 40.51516 22.97360 15 ft 21 kts 75°
2026-05-06 12:54 40.51640 22.97380 14 ft 21 kts 346°
2026-05-06 12:54 40.51786 22.97335 12 ft 21 kts 347°
2026-05-06 12:55 40.51933 22.97287 12 ft 21 kts 347°
2026-05-06 12:55 40.52081 22.97241 11 ft 21 kts 346°
2026-05-06 12:55 40.52226 22.97194 10 ft 21 kts 346°
2026-05-06 12:55 40.52363 22.97178 10 ft 19 kts 43°
2026-05-06 12:56 40.52396 22.97341 11 ft 14 kts 102°
2026-05-06 12:56 40.52426 22.97422 11 ft 0 kts 46°